CAPE
0 0 0 0 0 0 0 0 0 0 0 0 0 0 0 0 3 34 416 629 903 1502 1867 1539 972 277 28 6 0 30 181 419 577 515 234 163 73 8 147 440 659 767 639 392 176 62 65 70 6
0 0 0 0 0 0 0 0 0 0 0 0 0 0 0 4 3 274 488 736 1172 1673 1856 1681 942 345 91 0 0 0 4 179 338 307 161 99 56 71 298 418 560 569 346 136 0 0 0 0 0
0 0 0 0 0 0 0 0 0 0 0 0 0 0 0 97 586 538 637 1055 1476 1702 1854 1772 934 336 81 0 0 0 0 1 56 64 46 58 46 146 389 459 491 514 412 228 59 0 0 0 0
0 0 0 0 0 0 0 0 0 0 0 0 0 0 0 526 635 389 1117 1299 1459 1622 1754 1720 926 336 46 6 0 0 0 0 0 0 0 1 111 330 422 357 382 330 193 61 2 0 0 0 0
0 0 0 0 0 0 0 0 0 0 0 0 0 0 0 0 82 947 1322 1343 1218 1390 1725 1751 987 332 38 1 0 0 0 0 0 0 0 0 78 154 168 179 176 158 101 34 0 0 0 0 0
0 0 0 0 0 0 0 0 0 0 0 0 0 0 0 737 766 1205 1420 1272 1255 1376 1737 1795 1209 428 82 1 0 0 0 0 0 0 0 0 23 95 147 162 127 115 93 64 3 0 0 0 0
0 0 0 0 0 0 0 0 0 0 0 0 0 0 0 46 1036 1312 1450 1403 1388 1422 1640 1882 1535 768 136 2 0 0 0 0 0 0 0 0 0 23 35 84 154 172 74 2 0 0 0 0 0
0 0 0 0 0 0 0 0 0 0 0 0 0 0 0 0 1108 1218 1456 1547 1453 1466 1475 1645 1612 1036 364 240 11 1 0 0 0 0 0 0 0 0 61 68 65 56 0 0 0 0 0 0 0
0 0 0 0 0 0 0 0 0 0 0 0 0 0 0 87 1094 1087 1356 1584 1492 1339 1414 1484 1448 1290 525 295 238 41 12 0 0 0 0 5 47 83 104 125 90 11 7 9 0 0 0 0 0
0 0 0 0 0 0 0 0 0 0 0 0 0 0 28 574 945 1152 1203 1410 1347 1195 1326 1312 1341 1172 839 428 427 245 181 78 69 52 23 72 294 321 199 148 94 81 52 30 31 0 0 0 0
0 0 0 0 0 0 0 0 0 0 0 0 0 0 10 182 953 1189 1354 1390 1271 1202 1144 1226 1184 1026 796 481 491 348 281 334 291 209 225 209 219 218 101 141 133 162 72 81 68 49 19 20 3
0 0 0 0 0 0 0 0 0 0 0 0 0 0 0 56 389 1028 1229 1408 1328 1205 1112 1563 1011 852 897 755 422 329 221 266 197 158 116 85 53 82 82 73 124 138 124 266 195 99 119 144 137
0 0 0 0 0 0 0 0 0 0 0 0 0 0 0 0 0 75 1191 1286 1367 1260 1108 1213 847 1230 998 853 507 395 291 241 229 218 145 78 42 34 32 85 90 125 426 506 487 360 274 296 286
0 0 0 0 0 0 0 0 0 0 0 0 0 0 0 0 0 0 830 1356 1302 1156 980 1056 1232 1221 1036 783 771 492 376 377 426 307 216 90 16 0 13 60 92 170 526 734 823 755 663 645 525
0 0 0 0 0 0 0 0 0 0 0 0 0 0 0 0 0 0 387 1267 1413 1227 919 1005 1169 1126 1093 844 765 549 456 478 436 395 396 91 35 30 14 13 122 351 695 841 978 771 719 618 414
0 0 0 0 0 0 0 0 0 0 0 0 0 0 0 0 0 0 332 1280 1450 1246 966 988 931 1139 923 815 867 718 629 530 470 445 288 158 60 13 41 112 260 472 545 659 994 778 594 407 234
0 0 0 0 0 0 0 0 0 0 0 0 0 0 0 0 0 0 1030 1537 1541 1361 1140 1015 969 848 603 759 759 784 798 687 434 438 357 314 40 12 235 424 782 963 874 833 728 370 373 255 89
0 6 0 0 0 0 0 0 0 0 0 0 0 0 0 0 0 0 1675 1798 1650 1383 1144 888 902 666 737 906 811 606 614 577 487 390 287 259 59 40 105 536 721 777 883 582 407 262 2 3 0
0 5 19 13 0 0 0 0 0 0 0 0 0 0 0 0 0 0 1604 1951 1692 1485 1331 1047 904 981 941 570 319 273 204 296 234 303 255 209 65 58 162 528 558 784 711 416 147 25 0 0 0
0 0 0 3 0 0 0 0 0 0 0 0 0 0 0 0 0 0 186 1942 1683 1707 1481 1226 916 718 615 575 529 371 396 392 318 355 259 304 397 327 272 396 583 476 294 107 48 3 0 0 0
0 0 0 0 0 0 0 0 0 0 0 0 0 0 0 0 0 0 24 1178 1755 1691 1617 1396 1009 686 677 599 527 462 447 401 326 277 308 495 652 545 371 389 303 195 129 37 0 0 0 0 0
0 0 0 10 17 1 0 0 0 0 0 0 0 0 0 0 0 0 114 821 1317 1795 1833 1507 1105 818 770 645 462 424 113 132 290 467 644 767 727 554 216 116 61 13 0 0 0 0 0 0 0
0 0 0 0 13 17 6 0 0 0 0 0 0 0 0 0 0 0 0 467 886 1583 1739 1639 1138 962 892 812 597 684 530 894 1000 677 569 353 307 136 87 38 1 0 0 0 0 0 0 0 0
0 0 5 38 0 9 9 2 0 0 0 0 0 0 0 0 0 0 0 334 1037 1528 1479 1415 1344 1181 973 1130 793 918 1187 1126 602 415 353 199 88 5 3 3 12 0 0 0 0 0 0 0 0
0 0 3 7 3 0 0 8 0 0 0 0 0 0 0 0 0 0 0 61 924 1525 1521 1369 1251 1272 1074 1354 1209 1170 1415 1006 672 425 166 66 11 0 0 2 0 0 2 0 0 0 0 0 0
16 3 2 0 2 13 3 8 0 0 0 0 0 0 0 0 0 0 0 0 170 1247 1519 1489 1198 1307 1206 1391 1615 1612 1618 902 385 168 8 4 4 2 0 0 0 0 0 0 0 0 0 0 0
2 5 0 0 2 4 19 0 0 0 0 0 0 0 0 0 0 0 0 0 42 584 1321 1440 1332 1206 1222 1484 1557 1468 831 472 156 2 3 2 0 0 0 0 0 0 0 0 0 0 0 0 0
0 2 0 3 0 0 0 0 0 0 0 0 0 0 0 0 0 0 0 0 0 401 981 1449 1375 1054 1226 1271 1135 766 491 81 21 2 2 0 0 0 0 0 0 0 0 0 0 0 0 0 0
10 0 1 1 0 1 0 0 1 0 0 0 0 0 0 0 0 0 0 0 0 318 856 1370 1233 847 1141 703 399 365 230 37 3 3 5 2 0 0 0 0 0 0 0 0 0 0 0 0 0
0 0 7 5 1 2 8 0 0 0 0 0 0 0 0 0 0 0 0 0 0 223 808 1177 1174 924 706 368 264 287 52 3 4 7 8 3 0 0 0 0 0 0 0 0 0 0 0 0 0
CIN
0 0 0 0 0 0 0 0 0 0 0 0 0 0 0 0 -23 -131 -609 -597 -557 -470 -396 -412 -471 -567 -623 -529 0 -533 -453 -361 -282 -307 -377 -381 -442 -507 -330 -213 -129 -81 -94 -146 -218 -216 -198 -220 -220
0 0 0 0 0 0 0 0 0 0 0 0 0 0 0 -114 -175 -347 -434 -630 -521 -461 -400 -367 -476 -546 -578 0 0 0 -340 -476 -387 -355 -422 -445 -453 -400 -273 -221 -176 -151 -192 -237 0 0 0 0 0
0 0 0 0 0 0 0 0 0 0 0 0 0 0 0 -87 -248 -308 -538 -579 -492 -429 -369 -343 -463 -542 -593 0 0 0 0 -25 -581 -539 -526 -479 -467 -364 -245 -200 -180 -165 -164 -210 -256 0 0 0 0
0 0 0 0 0 0 0 0 0 0 0 0 0 0 0 -290 -269 -418 -560 -542 -482 -408 -356 -355 -452 -539 -621 -636 0 0 0 0 0 0 0 -115 -410 -302 -241 -238 -207 -225 -242 -277 -146 0 0 0 0
0 0 0 0 0 0 0 0 0 0 0 0 0 0 0 0 -565 -510 -530 -538 -513 -440 -356 -338 -454 -551 -623 -149 0 0 0 0 0 0 0 0 -469 -392 -352 -301 -277 -259 -282 -317 0 0 0 0 0
0 0 0 0 0 0 0 0 0 0 0 0 0 0 0 -403 -452 -489 -482 -486 -449 -441 -355 -321 -405 -534 -627 -315 0 0 0 0 0 0 0 0 -508 -415 -342 -305 -301 -262 -266 -287 -126 0 0 0 0
0 0 0 0 0 0 0 0 0 0 0 0 0 0 0 -86 -401 -445 -434 -416 -413 -409 -358 -293 -328 -460 -614 -506 0 0 0 0 0 0 0 0 0 -433 -399 -325 -255 -233 -283 -46 0 0 0 0 0
0 0 0 0 0 0 0 0 0 0 0 0 0 0 0 0 -370 -417 -373 -356 -368 -361 -361 -309 -304 -400 -528 -567 -702 -319 0 0 0 0 0 0 0 0 -346 -335 -314 -283 0 0 0 0 0 0 0
0 0 0 0 0 0 0 0 0 0 0 0 0 0 0 -346 -351 -392 -338 -308 -329 -353 -345 -336 -336 -348 -475 -516 -539 -631 -648 0 0 0 0 -163 -423 -368 -334 -291 -314 -363 -125 -257 0 0 0 0 0
0 0 0 0 0 0 0 0 0 0 0 0 0 0 -381 -292 -302 -305 -339 -340 -379 -419 -390 -405 -376 -392 -423 -483 -469 -493 -513 -540 -542 -533 -551 -438 -315 -282 -277 -287 -368 -314 -318 -319 -290 0 0 0 0
0 0 0 0 0 0 0 0 0 0 0 0 0 0 -262 -319 -221 -220 -219 -287 -413 -419 -414 -420 -408 -420 -414 -449 -427 -446 -459 -436 -435 -459 -436 -397 -359 -318 -357 -264 -221 -198 -254 -245 -243 -224 -212 -245 -70
0 0 0 0 0 0 0 0 0 0 0 0 0 0 0 -390 -228 -189 -211 -216 -296 -395 -417 -331 -414 -436 -362 -356 -425 -418 -442 -437 -453 -465 -487 -492 -468 -414 -364 -344 -264 -207 -197 -131 -151 -147 -125 -110 -113
0 0 0 0 0 0 0 0 0 0 0 0 0 0 0 0 0 -245 -166 -191 -230 -315 -386 -383 -446 -326 -338 -330 -380 -376 -387 -408 -403 -428 -460 -517 -487 -464 -392 -330 -334 -266 -105 -64 -69 -70 -91 -83 -77
0 0 0 0 0 0 0 0 0 0 0 0 0 0 0 0 0 0 -174 -222 -273 -315 -399 -414 -350 -319 -308 -329 -314 -345 -355 -362 -366 -395 -426 -478 -458 0 -478 -395 -326 -268 -106 -34 -38 -32 -36 -40 -57
0 0 0 0 0 0 0 0 0 0 0 0 0 0 0 0 0 0 -304 -239 -297 -352 -380 -387 -349 -332 -294 -299 -285 -295 -317 -318 -345 -368 -353 -428 -432 -429 -421 -433 -292 -206 -118 -48 -41 -41 -45 -71 -84
0 0 0 0 0 0 0 0 0 0 0 0 0 0 0 0 0 0 -286 -245 -249 -255 -362 -341 -349 -318 -308 -297 -254 -258 -273 -296 -310 -312 -335 -351 -425 -451 -370 -289 -218 -190 -143 -65 -35 -34 -83 -95 -94
0 0 0 0 0 0 0 0 0 0 0 0 0 0 0 0 0 0 -221 -208 -256 -316 -320 -329 -325 -363 -384 -305 -271 -246 -241 -259 -282 -273 -279 -282 -389 -422 -225 -149 -115 -101 -73 -67 -62 -109 -103 -113 -146
0 -2 0 0 0 0 0 0 0 0 0 0 0 0 0 0 0 0 -150 -151 -200 -264 -296 -322 -300 -375 -351 -255 -257 -260 -257 -258 -264 -269 -260 -262 -328 -337 -254 -128 -143 -116 -83 -105 -108 -119 -80 -68 0
0 -3 -5 -2 0 0 0 0 0 0 0 0 0 0 0 0 0 0 -139 -119 -166 -209 -256 -313 -298 -312 -285 -326 -372 -325 -317 -291 -304 -283 -262 -266 -286 -291 -228 -117 -139 -108 -90 -128 -198 -264 0 0 0
0 0 0 -2 0 0 0 0 0 0 0 0 0 0 0 0 0 0 -210 -106 -161 -225 -231 -267 -331 -377 -382 -344 -331 -318 -284 -268 -225 -245 -256 -223 -186 -186 -189 -150 -127 -158 -186 -217 -252 -215 0 0 0
0 0 0 0 0 0 0 0 0 0 0 0 0 0 0 0 0 0 -244 -227 -159 -173 -236 -279 -340 -401 -367 -348 -337 -315 -267 -246 -229 -253 -228 -177 -136 -150 -167 -167 -176 -207 -215 -270 0 0 0 0 0
0 0 0 -3 -6 -3 0 0 0 0 0 0 0 0 0 0 0 0 -218 -285 -260 -226 -244 -268 -317 -359 -341 -369 -339 -319 -279 -244 -231 -246 -179 -116 -118 -101 -173 -220 -245 -265 0 0 0 0 0 0 0
0 0 0 0 -7 -7 -3 0 0 0 0 0 0 0 0 0 0 0 0 -251 -295 -270 -266 -253 -282 -309 -320 -346 -311 -275 -210 -155 -115 -183 -169 -170 -142 -140 -168 -199 -14 0 0 0 0 0 0 0 0
0 0 -2 -4 -27 -9 -5 -4 0 0 0 0 0 0 0 0 0 0 0 -200 -215 -227 -244 -246 -271 -279 -294 -272 -282 -228 -150 -134 -194 -207 -174 -185 -191 -241 -264 -60 -210 0 0 0 0 0 0 0 0
0 0 -5 -2 -2 0 0 -4 0 0 0 0 0 0 0 0 0 0 0 -83 -192 -193 -214 -244 -274 -265 -297 -232 -206 -184 -92 -127 -157 -171 -209 -224 -257 0 0 -143 0 0 0 0 0 0 0 0 0
-1 -4 -4 -1 -6 -5 -14 -3 0 0 0 0 0 0 0 0 0 0 0 0 -249 -196 -185 -218 -289 -289 -295 -211 -136 -82 -43 -108 -182 -208 -31 -42 0 0 0 -24 0 0 0 0 0 0 0 0 0
-2 0 -1 -5 -3 -2 -5 -1 0 0 0 0 0 0 0 0 0 0 0 0 -310 -254 -188 -219 -275 -297 -264 -163 -123 -86 -175 -190 -233 0 0 0 0 0 0 0 0 0 0 0 0 0 0 0 0
0 -6 0 -5 0 -1 -2 0 0 0 0 0 0 0 0 0 0 0 0 0 0 -288 -243 -203 -207 -272 -207 -164 -156 -220 -259 -303 -294 0 0 0 0 0 0 0 0 0 0 0 0 0 0 0 0
-2 0 -3 -1 -1 -2 0 -1 -31 0 0 0 0 0 0 0 0 0 0 0 0 -310 -239 -168 -186 -279 -172 -234 -307 -300 -290 -298 0 0 0 0 0 0 0 0 0 0 0 0 0 0 0 0 0
0 0 -1 -1 -1 0 -2 0 0 -2 0 0 0 0 0 0 0 0 0 0 0 -328 -219 -183 -170 -220 -220 -326 -303 -270 -291 0 0 0 0 0 0 0 0 0 0 0 0 0 0 0 0 0 0
Wind_Speed
22 19 20 22 25 26 29 26 23 18 19 19 21 22 24 26 18 14 16 7 15 19 21 22 22 21 21 21 22 22 22 22 22 23 23 23 23 23 24 23 22 21 21 20 19 18 17 17 17
17 18 20 23 29 33 36 28 28 18 17 20 24 25 24 23 21 17 11 8 16 17 19 20 21 21 20 20 20 20 21 21 21 21 21 22 22 23 23 22 21 20 19 19 18 17 17 17 17
17 18 24 28 31 42 37 28 31 25 25 24 27 24 25 20 15 14 11 9 14 13 16 19 20 21 20 19 20 20 20 20 21 21 21 21 21 21 20 19 19 18 18 17 17 17 16 16 15
19 20 24 35 42 44 39 28 24 22 23 24 24 31 24 17 17 13 4 8 13 10 13 17 19 19 19 19 19 19 19 19 20 20 20 19 19 19 18 17 17 17 16 16 15 15 14 14 14
21 25 36 42 51 47 37 30 24 23 23 23 23 27 26 20 17 8 1 7 13 16 12 16 17 17 18 18 18 18 18 19 18 18 18 18 18 17 16 15 15 15 14 14 14 14 13 13 13
27 28 41 50 54 49 40 38 34 33 31 30 27 29 26 17 13 7 1 7 13 14 17 16 15 15 17 18 18 17 17 17 17 16 16 16 15 14 13 13 13 13 14 14 14 14 13 13 13
33 35 48 52 53 52 45 37 36 35 36 34 28 29 25 21 15 6 3 6 10 13 14 15 16 14 14 14 15 17 16 15 15 14 14 14 13 12 12 12 12 13 13 13 13 13 13 13 13
32 37 49 49 50 60 40 34 33 35 39 30 23 28 28 19 10 5 4 7 10 11 12 14 16 15 12 11 12 13 13 13 12 12 12 11 10 10 10 11 11 12 13 13 13 13 14 14 13
28 46 57 53 47 47 31 33 31 28 32 26 22 25 24 16 9 7 7 8 11 11 10 10 11 12 11 9 9 10 10 10 10 9 10 9 8 9 9 9 10 11 12 13 13 13 13 14 14
35 51 57 44 44 46 41 43 40 34 30 30 28 24 20 13 11 11 12 13 14 14 12 11 10 10 9 8 8 7 6 5 5 6 8 6 7 7 8 8 9 10 11 12 13 14 14 14 14
40 57 45 44 43 41 44 45 38 39 40 32 30 27 24 18 15 16 15 15 16 14 12 12 11 10 9 7 7 6 4 2 2 4 4 4 4 5 6 7 8 10 11 12 13 13 13 14 15
50 49 51 48 44 44 43 43 46 44 45 33 33 28 25 24 20 18 19 17 17 16 13 13 11 10 8 6 6 5 5 4 3 2 3 2 2 3 4 6 8 9 11 12 13 13 14 15 16
50 50 48 43 47 52 45 49 49 50 36 34 35 35 32 32 29 25 20 19 18 18 15 13 11 11 8 7 6 6 5 5 3 2 2 0 1 2 3 5 7 9 11 12 13 13 15 15 15
42 46 50 49 53 49 47 50 50 55 42 42 43 44 42 39 35 30 23 21 21 19 18 15 13 11 9 8 7 6 6 5 4 3 2 1 1 2 2 4 6 8 11 13 13 15 16 16 15
43 52 52 54 49 49 46 58 61 48 45 41 38 37 39 36 31 30 26 24 23 22 19 17 15 12 10 9 8 7 6 5 5 4 2 2 3 1 3 3 5 8 12 14 14 16 16 17 17
43 46 57 42 45 49 39 70 57 44 42 45 44 44 40 38 35 34 30 28 25 23 21 18 15 13 10 11 9 8 7 6 5 3 2 1 2 4 5 6 7 8 12 12 14 14 17 18 18
44 58 54 49 41 40 46 58 45 43 38 37 39 40 43 40 36 33 28 27 27 26 22 20 16 14 12 10 11 9 8 6 4 3 3 1 1 4 6 6 8 10 11 14 13 15 17 17 19
48 52 54 53 38 38 46 55 50 41 37 37 39 36 39 40 37 29 26 26 26 26 23 21 18 15 12 10 10 11 10 8 7 7 4 2 3 3 4 6 8 10 12 13 15 16 18 18 21
44 48 57 50 47 47 53 52 47 43 45 40 39 38 36 38 34 28 27 26 26 25 24 22 20 16 13 12 11 10 9 11 11 8 5 5 5 3 4 7 9 11 12 14 15 17 17 20 22
40 48 52 53 48 49 54 59 50 48 47 43 41 40 38 38 35 29 26 27 26 25 24 23 20 17 16 15 13 12 11 13 10 8 7 6 5 5 4 6 9 11 13 14 16 17 18 20 23
32 41 45 50 47 48 54 66 60 53 47 44 44 42 39 39 39 32 27 27 26 26 25 24 21 18 19 18 14 13 11 12 10 9 9 7 5 4 5 7 9 13 16 16 17 17 18 19 20
30 28 39 43 48 61 47 75 56 44 44 47 47 45 42 39 38 36 30 27 26 26 26 24 21 23 21 19 16 15 13 12 12 11 11 7 5 4 7 7 12 10 15 16 16 17 17 17 19
8 6 34 41 48 52 51 58 59 48 50 48 44 46 42 36 36 37 35 30 26 27 28 27 25 25 23 20 18 15 13 12 11 9 9 8 5 4 5 6 12 12 13 14 15 16 17 19 20
5 6 19 29 35 51 51 54 62 56 52 43 41 41 39 36 35 35 36 33 30 27 30 31 30 27 24 22 20 17 13 12 10 10 10 9 7 4 6 11 4 8 10 12 14 16 18 20 22
6 3 25 29 37 50 44 51 60 38 45 42 34 31 29 28 31 34 36 36 33 32 31 30 28 26 23 21 19 17 14 12 11 9 8 8 7 6 8 4 5 8 10 13 15 17 19 21 21
1 6 8 27 33 42 38 51 57 49 52 38 37 33 36 34 31 33 35 37 36 34 33 30 27 24 22 20 18 16 14 12 10 8 7 7 5 7 4 5 8 9 11 14 16 18 20 21 22
5 8 15 17 34 33 34 41 51 49 47 45 47 42 40 39 35 34 33 36 37 35 35 33 28 25 21 19 17 14 11 9 7 4 4 2 2 5 9 10 8 10 13 15 16 18 20 21 22
10 7 6 8 26 30 30 38 45 37 44 45 45 45 43 42 39 34 34 34 35 35 33 33 30 26 21 18 15 12 9 7 5 3 2 1 1 4 3 5 9 11 14 16 17 19 21 22 24
5 5 6 7 6 26 31 27 24 32 38 29 37 43 44 45 44 39 33 32 33 33 32 30 27 23 20 17 14 10 8 7 5 3 3 3 4 5 5 6 8 12 14 17 19 20 22 24 26
10 10 12 12 6 12 20 36 30 23 26 29 36 34 34 41 44 42 36 30 30 30 30 28 24 22 20 16 13 10 8 6 6 4 3 4 3 4 4 8 10 12 16 18 19 21 23 25 26
Wind_Direction
287 291 288 280 273 268 262 264 268 279 285 286 273 275 276 269 284 292 277 331 114 120 121 122 121 118 114 111 104 100 100 103 104 104 103 100 97 97 98 97 93 89 85 81 75 70 65 61 58
292 290 286 274 265 260 255 264 266 273 287 289 275 275 275 280 271 283 320 358 118 121 122 123 123 120 117 110 105 101 100 100 102 101 99 100 98 99 99 96 92 88 84 78 72 68 65 63 63
288 288 272 266 263 236 251 265 266 274 275 287 277 279 279 281 289 291 315 90 117 124 124 125 126 122 116 110 107 103 101 101 102 102 99 98 98 96 93 88 84 80 79 76 70 65 63 60 59
280 279 277 262 253 238 247 268 277 281 280 281 282 265 278 296 297 301 4 109 124 133 126 128 127 123 118 113 109 105 103 101 101 101 100 98 96 93 90 86 82 79 76 70 64 60 57 55 52
275 275 264 261 246 245 256 266 272 278 283 285 283 271 275 293 301 314 60 129 138 134 131 133 132 126 122 117 111 108 106 104 102 102 100 98 98 96 92 86 80 75 69 63 57 52 49 45 41
266 270 262 257 251 248 259 259 268 272 275 278 280 275 277 297 304 305 228 145 143 138 134 136 137 132 128 123 118 113 108 106 103 103 101 99 98 93 87 82 78 72 67 59 52 48 42 33 29
263 263 261 260 255 253 258 263 268 271 270 271 276 274 276 285 295 290 223 163 151 143 138 138 142 140 135 129 123 119 113 108 104 102 101 101 94 87 83 78 73 68 61 54 48 41 35 30 27
265 267 262 261 259 247 263 266 272 270 268 276 277 271 269 283 285 264 213 176 162 155 148 143 143 144 145 138 133 125 117 111 106 102 101 97 88 81 73 68 60 56 52 45 40 36 31 23 25
266 261 259 258 261 261 272 270 276 278 271 274 275 273 278 283 271 237 218 192 176 171 164 160 153 150 150 147 141 133 125 118 108 102 101 95 83 82 75 57 57 50 45 39 37 34 28 24 22
258 260 260 266 266 267 268 265 267 269 270 268 267 273 281 278 262 233 212 199 189 184 178 174 169 166 159 153 153 147 136 127 114 107 109 91 85 79 68 52 50 41 40 36 33 30 26 28 23
263 260 267 268 268 268 267 265 266 266 263 265 265 270 273 272 267 249 239 212 196 191 190 183 178 176 171 175 167 159 164 185 160 126 115 89 66 58 48 37 35 33 38 30 35 30 26 21 23
265 266 266 267 269 269 267 267 263 261 261 267 266 272 269 267 265 258 245 233 207 198 200 189 186 189 187 193 189 181 185 191 177 164 139 107 74 70 63 40 32 24 28 24 29 22 21 19 17
266 268 268 272 267 266 268 263 264 261 265 264 265 266 264 263 263 264 252 236 223 209 208 198 195 194 194 201 202 200 203 199 222 221 195 128 15 48 36 45 34 10 23 19 23 17 8 10 13
273 274 270 270 265 266 264 264 263 258 262 261 262 263 262 262 260 261 248 228 215 210 209 203 194 193 192 205 202 212 216 222 234 246 238 226 68 29 51 28 23 13 1 1 14 358 357 2 7
274 273 271 266 266 265 264 261 255 261 261 260 258 262 259 257 257 256 245 229 215 213 214 207 200 194 192 216 218 220 226 237 249 257 211 271 312 4 357 16 26 19 338 357 1 353 355 358 0
274 271 266 270 266 259 260 254 256 263 260 257 256 255 257 254 255 254 248 235 223 216 214 214 208 198 205 233 232 230 243 249 258 257 246 246 302 318 323 338 354 357 350 8 356 354 354 355 358
274 263 263 267 268 262 251 256 261 262 259 258 257 255 252 251 253 254 243 230 219 216 215 213 207 207 213 224 236 240 247 251 237 232 265 210 318 294 314 333 351 353 357 351 3 354 354 357 354
276 267 262 261 263 264 258 255 258 259 262 260 256 256 252 248 249 251 239 229 221 218 219 218 219 215 210 219 233 248 253 249 257 269 270 268 289 288 309 333 343 1 351 356 353 354 353 356 351
283 274 264 261 260 262 259 258 259 257 258 258 256 253 252 246 247 249 237 227 218 217 217 215 220 214 211 219 222 233 234 251 254 271 274 285 284 274 299 321 337 345 346 355 356 355 359 353 351
285 274 266 264 260 259 258 257 259 257 256 255 255 252 250 246 244 245 235 225 218 214 216 221 219 219 215 229 234 253 246 257 256 263 275 288 283 284 301 317 325 328 342 354 354 354 353 350 349
295 278 269 262 261 259 258 256 256 256 255 253 251 250 248 246 243 242 234 226 224 222 218 219 214 220 226 233 235 255 254 262 257 255 264 271 279 290 292 304 315 319 320 343 346 349 353 351 355
302 296 278 267 259 252 254 249 253 252 252 248 246 246 245 246 244 242 235 228 226 223 224 224 221 230 231 230 234 242 245 250 260 254 259 265 274 294 294 306 309 340 326 340 348 353 357 1 355
249 285 289 269 260 255 251 249 247 250 248 247 246 244 244 245 244 240 236 234 231 230 228 229 231 233 232 232 235 243 251 258 260 251 253 263 277 308 319 323 311 330 345 353 358 1 2 2 355
277 339 324 281 265 252 249 248 245 244 244 248 247 243 242 241 241 240 237 236 235 234 231 230 230 232 232 236 236 243 247 254 254 251 258 267 282 298 311 324 345 358 9 9 11 9 4 2 357
32 56 305 289 262 256 255 249 244 248 243 244 242 238 236 238 238 238 235 233 233 232 230 228 228 229 229 234 238 242 246 254 255 250 256 266 274 310 317 298 17 3 17 22 17 8 3 1 0
113 189 308 298 280 265 261 251 245 245 244 244 242 241 240 241 241 238 237 235 234 233 231 230 228 227 226 231 239 243 247 254 260 270 275 281 294 326 314 7 10 3 10 9 11 7 4 5 3
42 194 205 220 278 280 271 262 252 248 242 241 239 241 240 239 239 239 239 237 235 234 232 231 229 230 226 228 235 238 239 240 244 263 276 265 2 16 331 317 342 358 1 7 10 8 6 5 3
199 49 108 159 299 283 279 265 249 247 242 240 238 237 238 238 238 239 239 239 236 235 234 232 231 230 226 223 227 230 222 224 225 242 224 145 60 59 19 356 8 19 7 10 12 8 4 2 358
100 100 149 151 162 296 283 275 278 256 244 244 242 239 237 235 235 236 238 240 237 234 232 229 225 222 219 219 217 215 211 210 208 185 154 104 99 92 55 24 16 7 14 10 8 5 2 360 358
210 211 205 200 174 198 231 267 274 279 255 248 246 241 238 235 234 234 237 239 235 231 228 226 221 217 214 210 209 210 205 199 176 174 142 121 87 72 38 46 22 16 6 3 4 4 3 0 358